Flag for Denmark Weather past 2 weeks in Aarhus, Denmark

Now
59 °F

Drizzle. Broken clouds.


Feels Like: 56 °F
Forecast: 53 / 61 °F
Wind: 14 mph from West

Location: Tirstrup

Current Time: Aug 21, 2014 at 7:09:02 PM

Latest Report: Aug 21, 2014 at 6:20 PM


Visibility: N/A

Pressure: 29.83 "Hg

Humidity: 59%

Dew point: 45 °F

Location of AarhusLocation

Historic Weather in Aarhus — Graph

°F

Aarhus temperature yesterday

Maximum temperature yesterday: 64 °F (at 12:20 PM)
Minimum temperature yesterday: 54 °F (at 5:20 AM)
Average temperature yesterday: 58 °F

Past Weeks' High & Low Weather Summary

 TemperatureHumidityPressure
High75 °F (Aug 8, 2:50 PM)94% (Aug 8, 5:50 AM)30.01 "Hg (Aug 8, 5:50 AM)
Low52 °F (Aug 16, 6:20 AM)35% (Aug 11, 7:20 PM)29.30 "Hg (Aug 18, 9:50 AM)
Average62 °F68%29.69 "Hg
* Reported Aug 6 5:20 PM — Aug 21 5:50 PM, Aarhus, Weather by CustomWeather, © 2014

Note: Actual official high and low records may vary slightly from our data, if they occured in-between our weather recording intervals... More about our weather records

Advertising

Aarhus weather history for previous 24 hours

 ConditionsComfort  
Time TempWeatherWind HumidityBarometerVisibility
5:50 PM
Aug 21
61 °FPassing clouds.12 mph48%29.83 "HgN/A
5:20 PM63 °FScattered clouds.14 mph49%29.83 "HgN/A
4:50 PM63 °FPartly sunny.8 mph49%29.83 "HgN/A
4:20 PM63 °FPartly sunny.10 mph45%29.83 "HgN/A
3:50 PM64 °FPartly sunny.12 mph40%29.83 "HgN/A
3:20 PM63 °FPartly sunny.13 mph49%29.83 "HgN/A
2:50 PM63 °FPartly sunny.12 mph52%29.83 "HgN/A
2:20 PM63 °FScattered clouds.13 mph49%29.83 "HgN/A
1:50 PM61 °FPassing clouds.15 mph55%29.83 "HgN/A
1:20 PM61 °FScattered clouds.13 mph59%29.83 "HgN/A
12:50 PM61 °FBroken clouds.14 mph52%29.83 "HgN/A
12:20 PM61 °FRefreshingly cool.12 mph55%29.83 "HgN/A
11:50 AM61 °FRefreshingly cool.13 mph55%29.83 "HgN/A
11:20 AM61 °FPartly sunny.15 mph55%29.83 "HgN/A
10:50 AM61 °FPassing clouds.13 mph52%29.83 "HgN/A
10:20 AM59 °FPassing clouds.14 mph55%29.83 "HgN/A
9:50 AM57 °FPassing clouds.10 mph67%29.83 "HgN/A
9:20 AM57 °FPassing clouds.13 mph63%29.83 "HgN/A
8:50 AM55 °FCool.10 mph67%29.80 "HgN/A
8:20 AM54 °FPassing clouds.10 mph77%29.80 "HgN/A
7:50 AM54 °FScattered clouds.9 mph72%29.80 "HgN/A
7:20 AM52 °FPassing clouds.8 mph82%29.80 "HgN/A
6:50 AM52 °FPassing clouds.8 mph77%29.80 "HgN/A
6:20 AM52 °FPassing clouds.8 mph77%29.80 "HgN/A
5:50 AM52 °FPassing clouds.8 mph77%29.80 "HgN/A
5:20 AM52 °FPassing clouds.8 mph77%29.80 "HgN/A
4:50 AM52 °FCool.7 mph77%29.80 "HgN/A
4:20 AM52 °FCool.7 mph77%29.80 "HgN/A
3:50 AM52 °FPassing clouds.7 mph77%29.80 "HgN/A
3:20 AM52 °FCool.8 mph77%29.80 "HgN/A
2:50 AM52 °FCool.8 mph82%29.80 "HgN/A
2:20 AM52 °FCool.10 mph82%29.77 "HgN/A
1:50 AM54 °FCool.10 mph77%29.77 "HgN/A
1:20 AM54 °FCool.9 mph77%29.77 "HgN/A
12:50 AM54 °FCool.10 mph77%29.77 "HgN/A
12:20 AM54 °FCool.10 mph77%29.77 "HgN/A
11:50 PM
Aug 20
54 °FCool.12 mph77%29.77 "HgN/A
11:20 PM55 °FCool.12 mph72%29.77 "HgN/A
10:50 PM55 °FCool.13 mph72%29.77 "HgN/A
10:20 PM55 °FCool.12 mph72%29.77 "HgN/A
9:50 PM55 °FCool.12 mph67%29.77 "HgN/A
9:20 PM55 °FCool.12 mph67%29.77 "HgN/A
8:50 PM57 °FCool.13 mph63%29.77 "HgN/A
8:20 PM57 °FPassing clouds.13 mph63%29.74 "HgN/A
7:50 PM59 °FPassing clouds.14 mph59%29.74 "HgN/A
7:20 PM61 °FPassing clouds.15 mph59%29.74 "HgN/A
Weather by CustomWeather, © 2014

See weather overviewHow to use our weather pages